contact:dominique.lefevre@mio.osupytheas.fr, maurice.libes@osupytheas.fr, didier.mallarino@osupytheas.fr
Project:EMSO http://www.emso-fr.org/EMSO-France
Depth: 2436.0 m
Title:EMSO Ligure Ouest : Data MII capteur CSTAR
DateTime,Latitude,Longitude,Instrument_Serial,Reference_Counts,Signal_Counts,Corrected_Signal_raw_counts,Calculated_Beam_c_inverse_meters,Internal_thermistor_counts
DateTime,Latitude,Longitude,Instrument_Serial,Reference_Counts,Signal_Counts,Corrected_Signal_raw_counts,Calculated_Beam_c_inverse_meters,Internal_thermistor_counts
2019-08-21T00:02:35,42.805,6.029,CST-1368DR,8230,11520,15419,0.051,551
2019-08-21T00:05:37,42.805,6.029,CST-1368DR,8230,11520,15420,0.051,551
2019-08-21T00:08:39,42.805,6.029,CST-1368DR,8230,11520,15420,0.051,551
2019-08-21T00:11:40,42.805,6.029,CST-1368DR,8230,11519,15418,0.051,551
2019-08-21T00:14:42,42.805,6.029,CST-1368DR,8230,11519,15418,0.051,550
2019-08-21T00:17:44,42.805,6.029,CST-1368DR,8230,11519,15419,0.051,551
2019-08-21T00:20:45,42.805,6.029,CST-1368DR,8230,11520,15420,0.051,550
2019-08-21T00:23:47,42.805,6.029,CST-1368DR,8230,11519,15418,0.051,551
2019-08-21T00:26:49,42.805,6.029,CST-1368DR,8230,11520,15419,0.051,551
2019-08-21T00:29:50,42.805,6.029,CST-1368DR,8230,11519,15419,0.051,551
2019-08-21T00:32:52,42.805,6.029,CST-1368DR,8230,11519,15419,0.051,551
2019-08-21T00:35:53,42.805,6.029,CST-1368DR,8230,11516,15414,0.052,551
2019-08-21T00:38:55,42.805,6.029,CST-1368DR,8230,11519,15418,0.051,551
2019-08-21T00:41:57,42.805,6.029,CST-1368DR,8230,11519,15418,0.051,551
2019-08-21T00:44:58,42.805,6.029,CST-1368DR,8230,11519,15419,0.051,551
2019-08-21T00:48:00,42.805,6.029,CST-1368DR,8230,11520,15419,0.051,551
2019-08-21T00:51:02,42.805,6.029,CST-1368DR,8230,11519,15418,0.051,551
2019-08-21T00:54:03,42.805,6.029,CST-1368DR,8230,11520,15419,0.051,551
2019-08-21T00:57:05,42.805,6.029,CST-1368DR,8230,11517,15415,0.052,551
2019-08-21T01:00:07,42.805,6.029,CST-1368DR,8230,11518,15416,0.052,551
2019-08-21T01:03:08,42.805,6.029,CST-1368DR,8230,11519,15418,0.051,551
2019-08-21T01:06:10,42.805,6.029,CST-1368DR,8230,11517,15416,0.052,551
2019-08-21T01:09:11,42.805,6.029,CST-1368DR,8230,11517,15416,0.052,551
2019-08-21T01:12:13,42.805,6.029,CST-1368DR,8230,11519,15418,0.051,551
2019-08-21T01:15:15,42.805,6.029,CST-1368DR,8230,11518,15416,0.052,551
2019-08-21T01:18:16,42.805,6.029,CST-1368DR,8230,11516,15414,0.052,551
2019-08-21T01:21:18,42.805,6.029,CST-1368DR,8230,11519,15418,0.051,550
2019-08-21T01:24:20,42.805,6.029,CST-1368DR,8230,11515,15413,0.052,551
2019-08-21T01:27:21,42.805,6.029,CST-1368DR,8230,11517,15415,0.052,550
2019-08-21T01:30:23,42.805,6.029,CST-1368DR,8230,11519,15418,0.051,550
2019-08-21T01:33:25,42.805,6.029,CST-1368DR,8230,11519,15418,0.051,551
2019-08-21T01:36:26,42.805,6.029,CST-1368DR,8230,11519,15418,0.051,550
2019-08-21T01:39:28,42.805,6.029,CST-1368DR,8230,11518,15417,0.051,551
2019-08-21T01:42:30,42.805,6.029,CST-1368DR,8230,11517,15415,0.052,551
2019-08-21T01:45:31,42.805,6.029,CST-1368DR,8230,11520,15419,0.051,551
2019-08-21T01:48:33,42.805,6.029,CST-1368DR,8230,11519,15419,0.051,551
2019-08-21T01:51:34,42.805,6.029,CST-1368DR,8229,11519,15419,0.051,551
2019-08-21T01:54:36,42.805,6.029,CST-1368DR,8230,11519,15418,0.051,551
2019-08-21T01:57:38,42.805,6.029,CST-1368DR,8229,11516,15416,0.052,551
2019-08-21T02:00:39,42.805,6.029,CST-1368DR,8229,11519,15420,0.051,551
2019-08-21T02:03:41,42.805,6.029,CST-1368DR,8230,11517,15415,0.052,551
2019-08-21T02:06:43,42.805,6.029,CST-1368DR,8229,11519,15420,0.051,550
2019-08-21T02:09:44,42.805,6.029,CST-1368DR,8229,11519,15420,0.051,551
2019-08-21T02:12:46,42.805,6.029,CST-1368DR,8229,11517,15418,0.051,551
2019-08-21T02:15:48,42.805,6.029,CST-1368DR,8229,11517,15417,0.051,551
2019-08-21T02:18:49,42.805,6.029,CST-1368DR,8229,11517,15418,0.051,551
2019-08-21T02:21:51,42.805,6.029,CST-1368DR,8229,11516,15416,0.052,551
2019-08-21T02:24:53,42.805,6.029,CST-1368DR,8229,11516,15416,0.052,551
2019-08-21T02:27:54,42.805,6.029,CST-1368DR,8229,11519,15420,0.051,551
2019-08-21T02:30:56,42.805,6.029,CST-1368DR,8229,11517,15417,0.051,550
2019-08-21T02:33:57,42.805,6.029,CST-1368DR,8229,11517,15417,0.051,551
2019-08-21T02:36:59,42.805,6.029,CST-1368DR,8229,11518,15418,0.051,551
2019-08-21T02:40:01,42.805,6.029,CST-1368DR,8229,11517,15417,0.051,551
2019-08-21T02:43:02,42.805,6.029,CST-1368DR,8229,11519,15419,0.051,551
2019-08-21T02:46:04,42.805,6.029,CST-1368DR,8229,11519,15420,0.051,551
2019-08-21T02:49:06,42.805,6.029,CST-1368DR,8229,11516,15416,0.052,551
2019-08-21T02:52:07,42.805,6.029,CST-1368DR,8229,11518,15418,0.051,551
2019-08-21T02:55:09,42.805,6.029,CST-1368DR,8229,11516,15415,0.052,551
2019-08-21T02:58:11,42.805,6.029,CST-1368DR,8229,11514,15414,0.052,551
2019-08-21T03:01:12,42.805,6.029,CST-1368DR,8229,11515,15415,0.052,551
2019-08-21T03:04:14,42.805,6.029,CST-1368DR,8229,11517,15417,0.051,551
2019-08-21T03:07:16,42.805,6.029,CST-1368DR,8229,11515,15415,0.052,550
2019-08-21T03:10:17,42.805,6.029,CST-1368DR,8229,11517,15417,0.051,551
2019-08-21T03:13:19,42.805,6.029,CST-1368DR,8229,11517,15418,0.051,551
2019-08-21T03:16:20,42.805,6.029,CST-1368DR,8229,11517,15418,0.051,551
2019-08-21T03:19:22,42.805,6.029,CST-1368DR,8229,11516,15416,0.052,551
2019-08-21T03:22:24,42.805,6.029,CST-1368DR,8229,11518,15418,0.051,551
2019-08-21T03:25:25,42.805,6.029,CST-1368DR,8229,11517,15417,0.051,551
2019-08-21T03:28:27,42.805,6.029,CST-1368DR,8229,11518,15418,0.051,551
2019-08-21T03:31:29,42.805,6.029,CST-1368DR,8229,11515,15415,0.052,551
2019-08-21T03:34:30,42.805,6.029,CST-1368DR,8229,11517,15418,0.051,551
2019-08-21T03:37:32,42.805,6.029,CST-1368DR,8229,11518,15418,0.051,551
2019-08-21T03:40:34,42.805,6.029,CST-1368DR,8229,11519,15420,0.051,551
2019-08-21T03:43:35,42.805,6.029,CST-1368DR,8229,11516,15416,0.052,551
2019-08-21T03:46:37,42.805,6.029,CST-1368DR,8229,11516,15416,0.052,551
2019-08-21T03:49:39,42.805,6.029,CST-1368DR,8229,11518,15419,0.051,551
2019-08-21T03:52:40,42.805,6.029,CST-1368DR,8229,11518,15418,0.051,550
2019-08-21T03:55:42,42.805,6.029,CST-1368DR,8229,11516,15415,0.052,551
2019-08-21T03:58:43,42.805,6.029,CST-1368DR,8229,11514,15414,0.052,551
2019-08-21T04:01:45,42.805,6.029,CST-1368DR,8228,11517,15418,0.051,550
2019-08-21T04:04:47,42.805,6.029,CST-1368DR,8229,11517,15417,0.051,551
2019-08-21T04:07:48,42.805,6.029,CST-1368DR,8228,11516,15417,0.051,551
2019-08-21T04:10:50,42.805,6.029,CST-1368DR,8229,11514,15413,0.052,551
2019-08-21T04:13:52,42.805,6.029,CST-1368DR,8229,11517,15417,0.051,551
2019-08-21T04:16:53,42.805,6.029,CST-1368DR,8229,11516,15416,0.052,551
2019-08-21T04:19:55,42.805,6.029,CST-1368DR,8228,11518,15420,0.051,551
2019-08-21T04:22:57,42.805,6.029,CST-1368DR,8228,11517,15418,0.051,551
2019-08-21T04:25:58,42.805,6.029,CST-1368DR,8228,11515,15417,0.051,551
2019-08-21T04:29:00,42.805,6.029,CST-1368DR,8228,11517,15418,0.051,551
2019-08-21T04:32:01,42.805,6.029,CST-1368DR,8228,11517,15419,0.051,551
2019-08-21T04:35:03,42.805,6.029,CST-1368DR,8228,11516,15417,0.051,551
2019-08-21T04:38:05,42.805,6.029,CST-1368DR,8228,11515,15417,0.051,551
2019-08-21T04:41:06,42.805,6.029,CST-1368DR,8228,11514,15415,0.052,551
2019-08-21T04:44:08,42.805,6.029,CST-1368DR,8228,11512,15413,0.052,551
2019-08-21T04:47:10,42.805,6.029,CST-1368DR,8228,11513,15413,0.052,551
2019-08-21T04:50:11,42.805,6.029,CST-1368DR,8228,11515,15416,0.052,550
2019-08-21T04:53:13,42.805,6.029,CST-1368DR,8228,11516,15418,0.051,551
2019-08-21T04:56:15,42.805,6.029,CST-1368DR,8228,11514,15415,0.052,551
2019-08-21T04:59:16,42.805,6.029,CST-1368DR,8228,11515,15416,0.052,551
2019-08-21T05:02:18,42.805,6.029,CST-1368DR,8228,11516,15417,0.051,551
2019-08-21T05:05:20,42.805,6.029,CST-1368DR,8228,11517,15419,0.051,551
2019-08-21T05:08:21,42.805,6.029,CST-1368DR,8228,11515,15416,0.052,551
2019-08-21T05:11:23,42.805,6.029,CST-1368DR,8228,11514,15414,0.052,551
2019-08-21T05:14:24,42.805,6.029,CST-1368DR,8228,11510,15410,0.053,551
2019-08-21T05:17:26,42.805,6.029,CST-1368DR,8228,11516,15418,0.051,551
2019-08-21T05:20:28,42.805,6.029,CST-1368DR,8228,11517,15418,0.051,550
2019-08-21T05:23:29,42.805,6.029,CST-1368DR,8228,11516,15418,0.051,551
2019-08-21T05:26:31,42.805,6.029,CST-1368DR,8228,11514,15415,0.052,551
2019-08-21T05:29:33,42.805,6.029,CST-1368DR,8228,11516,15418,0.051,551
2019-08-21T05:32:34,42.805,6.029,CST-1368DR,8228,11516,15418,0.051,551
2019-08-21T05:35:36,42.805,6.029,CST-1368DR,8228,11517,15419,0.051,550
2019-08-21T05:38:38,42.805,6.029,CST-1368DR,8228,11515,15417,0.051,551
2019-08-21T05:41:39,42.805,6.029,CST-1368DR,8228,11514,15415,0.052,551
2019-08-21T05:44:41,42.805,6.029,CST-1368DR,8228,11517,15418,0.051,551
2019-08-21T05:47:43,42.805,6.029,CST-1368DR,8228,11516,15418,0.051,551
2019-08-21T05:50:44,42.805,6.029,CST-1368DR,8228,11516,15417,0.051,551
2019-08-21T05:53:46,42.805,6.029,CST-1368DR,8228,11516,15418,0.051,551
2019-08-21T05:56:48,42.805,6.029,CST-1368DR,8228,11516,15418,0.051,551
2019-08-21T05:59:49,42.805,6.029,CST-1368DR,8228,11514,15414,0.052,551
2019-08-21T06:02:51,42.805,6.029,CST-1368DR,8228,11511,15411,0.053,551
2019-08-21T06:05:53,42.805,6.029,CST-1368DR,8228,11515,15417,0.051,551
2019-08-21T06:08:54,42.805,6.029,CST-1368DR,8228,11517,15418,0.051,551
2019-08-21T06:11:56,42.805,6.029,CST-1368DR,8228,11516,15417,0.051,551
2019-08-21T06:14:58,42.805,6.029,CST-1368DR,8227,11513,15415,0.052,551
2019-08-21T06:17:59,42.805,6.029,CST-1368DR,8227,11514,15416,0.052,551
2019-08-21T06:21:01,42.805,6.029,CST-1368DR,8227,11514,15417,0.051,551
2019-08-21T06:24:02,42.805,6.029,CST-1368DR,8228,11516,15418,0.051,551
2019-08-21T06:27:04,42.805,6.029,CST-1368DR,8227,11516,15419,0.051,551
2019-08-21T06:30:06,42.805,6.029,CST-1368DR,8227,11515,15418,0.051,550
2019-08-21T06:33:07,42.805,6.029,CST-1368DR,8227,11515,15417,0.051,550
2019-08-21T06:36:09,42.805,6.029,CST-1368DR,8227,11516,15419,0.051,551
2019-08-21T06:39:11,42.805,6.029,CST-1368DR,8227,11514,15417,0.051,550
2019-08-21T06:42:12,42.805,6.029,CST-1368DR,8227,11516,15420,0.051,550
2019-08-21T06:45:14,42.805,6.029,CST-1368DR,8227,11515,15418,0.051,551
2019-08-21T06:48:16,42.805,6.029,CST-1368DR,8227,11513,15416,0.052,551
2019-08-21T06:51:17,42.805,6.029,CST-1368DR,8227,11511,15412,0.053,551
2019-08-21T06:54:19,42.805,6.029,CST-1368DR,8227,11516,15419,0.051,551
2019-08-21T06:57:21,42.805,6.029,CST-1368DR,8227,11514,15417,0.051,551
2019-08-21T07:00:22,42.805,6.029,CST-1368DR,8227,11510,15411,0.053,551
2019-08-21T07:03:24,42.805,6.029,CST-1368DR,8227,11514,15417,0.051,551
2019-08-21T07:06:26,42.805,6.029,CST-1368DR,8227,11515,15417,0.051,551
2019-08-21T07:09:27,42.805,6.029,CST-1368DR,8227,11515,15418,0.051,551
2019-08-21T07:12:29,42.805,6.029,CST-1368DR,8227,11515,15418,0.051,551
2019-08-21T07:15:30,42.805,6.029,CST-1368DR,8227,11516,15419,0.051,551
2019-08-21T07:18:32,42.805,6.029,CST-1368DR,8227,11515,15418,0.051,551
2019-08-21T07:21:34,42.805,6.029,CST-1368DR,8227,11515,15417,0.051,551
2019-08-21T07:24:35,42.805,6.029,CST-1368DR,8227,11516,15419,0.051,551
2019-08-21T07:27:37,42.805,6.029,CST-1368DR,8227,11513,15416,0.052,551
2019-08-21T07:30:39,42.805,6.029,CST-1368DR,8227,11513,15416,0.052,551
2019-08-21T07:33:40,42.805,6.029,CST-1368DR,8227,11515,15417,0.051,551
2019-08-21T07:36:42,42.805,6.029,CST-1368DR,8227,11515,15417,0.051,551
2019-08-21T07:39:43,42.805,6.029,CST-1368DR,8227,11511,15413,0.052,551
2019-08-21T07:42:45,42.805,6.029,CST-1368DR,8227,11514,15416,0.052,551
2019-08-21T07:45:47,42.805,6.029,CST-1368DR,8227,11514,15416,0.052,551
2019-08-21T07:48:48,42.805,6.029,CST-1368DR,8227,11514,15417,0.051,551
2019-08-21T07:51:50,42.805,6.029,CST-1368DR,8227,11514,15416,0.052,551
2019-08-21T07:54:52,42.805,6.029,CST-1368DR,8227,11514,15417,0.051,550
2019-08-21T07:57:53,42.805,6.029,CST-1368DR,8227,11513,15415,0.052,551
2019-08-21T08:00:55,42.805,6.029,CST-1368DR,8227,11513,15416,0.052,551
2019-08-21T08:03:57,42.805,6.029,CST-1368DR,8227,11515,15418,0.051,550
2019-08-21T08:06:58,42.805,6.029,CST-1368DR,8227,11512,15414,0.052,551
2019-08-21T08:10:00,42.805,6.029,CST-1368DR,8226,11511,15415,0.052,551
2019-08-21T08:13:01,42.805,6.029,CST-1368DR,8227,11514,15416,0.052,551
2019-08-21T08:16:03,42.805,6.029,CST-1368DR,8227,11513,15415,0.052,551
2019-08-21T08:19:05,42.805,6.029,CST-1368DR,8226,11511,15414,0.052,551
2019-08-21T08:22:06,42.805,6.029,CST-1368DR,8226,11514,15418,0.051,550
2019-08-21T08:25:08,42.805,6.029,CST-1368DR,8226,11514,15418,0.051,551
2019-08-21T08:28:10,42.805,6.029,CST-1368DR,8226,11515,15419,0.051,551
2019-08-21T08:31:11,42.805,6.029,CST-1368DR,8226,11514,15418,0.051,551
2019-08-21T08:34:13,42.805,6.029,CST-1368DR,8226,11513,15416,0.052,551
2019-08-21T08:37:15,42.805,6.029,CST-1368DR,8226,11513,15417,0.051,551
2019-08-21T08:40:16,42.805,6.029,CST-1368DR,8226,11514,15418,0.051,551
2019-08-21T08:43:18,42.805,6.029,CST-1368DR,8226,11513,15417,0.051,551
2019-08-21T08:46:19,42.805,6.029,CST-1368DR,8226,11514,15418,0.051,551
2019-08-21T08:49:21,42.805,6.029,CST-1368DR,8226,11513,15417,0.051,551
2019-08-21T08:52:23,42.805,6.029,CST-1368DR,8226,11513,15417,0.051,551
2019-08-21T08:55:24,42.805,6.029,CST-1368DR,8226,11513,15417,0.051,551
2019-08-21T08:58:26,42.805,6.029,CST-1368DR,8226,11513,15417,0.051,550
2019-08-21T09:01:28,42.805,6.029,CST-1368DR,8226,11512,15416,0.052,551
2019-08-21T09:04:29,42.805,6.029,CST-1368DR,8226,11515,15419,0.051,551
2019-08-21T09:07:31,42.805,6.029,CST-1368DR,8226,11513,15417,0.051,550
2019-08-21T09:10:32,42.805,6.029,CST-1368DR,8226,11512,15416,0.052,551
2019-08-21T09:13:34,42.805,6.029,CST-1368DR,8226,11516,15420,0.051,551
2019-08-21T09:16:36,42.805,6.029,CST-1368DR,8226,11514,15419,0.051,551
2019-08-21T09:19:37,42.805,6.029,CST-1368DR,8226,11514,15419,0.051,551
2019-08-21T09:22:39,42.805,6.029,CST-1368DR,8226,11515,15420,0.051,551
2019-08-21T09:25:41,42.805,6.029,CST-1368DR,8226,11514,15418,0.051,551
2019-08-21T09:28:42,42.805,6.029,CST-1368DR,8226,11514,15419,0.051,551
2019-08-21T09:31:44,42.805,6.029,CST-1368DR,8226,11514,15419,0.051,551
2019-08-21T09:34:45,42.805,6.029,CST-1368DR,8226,11512,15415,0.052,551
2019-08-21T09:37:47,42.805,6.029,CST-1368DR,8226,11509,15412,0.053,551
2019-08-21T09:40:49,42.805,6.029,CST-1368DR,8226,11514,15418,0.051,551
2019-08-21T09:43:50,42.805,6.029,CST-1368DR,8226,11513,15417,0.051,551
2019-08-21T09:46:52,42.805,6.029,CST-1368DR,8226,11513,15417,0.051,551
2019-08-21T09:49:54,42.805,6.029,CST-1368DR,8226,11514,15418,0.051,551
2019-08-21T09:52:55,42.805,6.029,CST-1368DR,8226,11512,15416,0.052,551
2019-08-21T09:55:57,42.805,6.029,CST-1368DR,8226,11511,15415,0.052,551
2019-08-21T09:58:59,42.805,6.029,CST-1368DR,8226,11514,15419,0.051,551
2019-08-21T10:02:00,42.805,6.029,CST-1368DR,8226,11514,15418,0.051,551
2019-08-21T10:05:02,42.805,6.029,CST-1368DR,8226,11514,15418,0.051,551
2019-08-21T10:08:04,42.805,6.029,CST-1368DR,8226,11514,15418,0.051,551
2019-08-21T10:11:05,42.805,6.029,CST-1368DR,8226,11514,15418,0.051,550
2019-08-21T10:14:07,42.805,6.029,CST-1368DR,8225,11513,15419,0.051,551
2019-08-21T10:17:08,42.805,6.029,CST-1368DR,8225,11514,15420,0.051,551
2019-08-21T10:20:10,42.805,6.029,CST-1368DR,8225,11513,15418,0.051,551
2019-08-21T10:23:12,42.805,6.029,CST-1368DR,8226,11514,15418,0.051,551
2019-08-21T10:26:13,42.805,6.029,CST-1368DR,8225,11514,15420,0.051,551
2019-08-21T10:29:15,42.805,6.029,CST-1368DR,8226,11514,15418,0.051,551
2019-08-21T10:32:17,42.805,6.029,CST-1368DR,8226,11513,15416,0.052,551
2019-08-21T10:35:18,42.805,6.029,CST-1368DR,8225,11514,15420,0.051,551
2019-08-21T10:38:20,42.805,6.029,CST-1368DR,8225,11512,15417,0.051,551
2019-08-21T10:41:22,42.805,6.029,CST-1368DR,8225,11513,15419,0.051,551
2019-08-21T10:44:23,42.805,6.029,CST-1368DR,8225,11506,15409,0.053,550
2019-08-21T10:47:25,42.805,6.029,CST-1368DR,8225,11513,15418,0.051,551
2019-08-21T10:50:27,42.805,6.029,CST-1368DR,8225,11513,15419,0.051,551
2019-08-21T10:53:28,42.805,6.029,CST-1368DR,8225,11514,15420,0.051,550
2019-08-21T10:56:30,42.805,6.029,CST-1368DR,8225,11512,15418,0.051,551
2019-08-21T10:59:32,42.805,6.029,CST-1368DR,8225,11513,15419,0.051,551
2019-08-21T11:02:33,42.805,6.029,CST-1368DR,8225,11513,15418,0.051,551
2019-08-21T11:05:35,42.805,6.029,CST-1368DR,8225,11514,15420,0.051,551
2019-08-21T11:08:37,42.805,6.029,CST-1368DR,8225,11508,15412,0.053,551
2019-08-21T11:11:38,42.805,6.029,CST-1368DR,8225,11512,15418,0.051,551
2019-08-21T11:14:40,42.805,6.029,CST-1368DR,8225,11513,15419,0.051,550
2019-08-21T11:17:41,42.805,6.029,CST-1368DR,8225,11514,15420,0.051,551
2019-08-21T11:20:43,42.805,6.029,CST-1368DR,8225,11512,15417,0.051,551
2019-08-21T11:23:45,42.805,6.029,CST-1368DR,8225,11511,15416,0.052,551
2019-08-21T11:26:46,42.805,6.029,CST-1368DR,8225,11513,15418,0.051,551
2019-08-21T11:29:48,42.805,6.029,CST-1368DR,8225,11511,15417,0.051,550
2019-08-21T11:32:50,42.805,6.029,CST-1368DR,8225,11511,15416,0.052,551
2019-08-21T11:35:51,42.805,6.029,CST-1368DR,8225,11513,15419,0.051,551
2019-08-21T11:38:53,42.805,6.029,CST-1368DR,8225,11513,15418,0.051,551
2019-08-21T11:41:54,42.805,6.029,CST-1368DR,8225,11510,15414,0.052,551
2019-08-21T11:44:56,42.805,6.029,CST-1368DR,8225,11510,15415,0.052,550
2019-08-21T11:47:58,42.805,6.029,CST-1368DR,8225,11512,15418,0.051,551
2019-08-21T11:50:59,42.805,6.029,CST-1368DR,8225,11511,15416,0.052,551
2019-08-21T11:54:01,42.805,6.029,CST-1368DR,8225,11511,15416,0.052,551
2019-08-21T11:57:03,42.805,6.029,CST-1368DR,8225,11512,15418,0.051,550
2019-08-21T12:00:04,42.805,6.029,CST-1368DR,8225,11512,15417,0.051,551
2019-08-21T12:03:06,42.805,6.029,CST-1368DR,8225,11510,15415,0.052,551
2019-08-21T12:06:08,42.805,6.029,CST-1368DR,8225,11510,15415,0.052,551
2019-08-21T12:09:09,42.805,6.029,CST-1368DR,8225,11512,15417,0.051,551
2019-08-21T12:12:11,42.805,6.029,CST-1368DR,8225,11511,15416,0.052,551
2019-08-21T12:15:12,42.805,6.029,CST-1368DR,8225,11511,15416,0.052,551
2019-08-21T12:18:14,42.805,6.029,CST-1368DR,8225,11509,15413,0.052,551
2019-08-21T12:21:16,42.805,6.029,CST-1368DR,8225,11509,15413,0.052,551
2019-08-21T12:24:17,42.805,6.029,CST-1368DR,8225,11511,15416,0.052,551
2019-08-21T12:27:19,42.805,6.029,CST-1368DR,8225,11509,15414,0.052,551
2019-08-21T12:30:21,42.805,6.029,CST-1368DR,8225,11510,15415,0.052,551
2019-08-21T12:33:22,42.805,6.029,CST-1368DR,8225,11509,15414,0.052,551
2019-08-21T12:36:24,42.805,6.029,CST-1368DR,8225,11512,15418,0.051,551
2019-08-21T12:39:26,42.805,6.029,CST-1368DR,8225,11510,15415,0.052,551
2019-08-21T12:42:27,42.805,6.029,CST-1368DR,8225,11509,15414,0.052,551
2019-08-21T12:45:29,42.805,6.029,CST-1368DR,8224,11509,15416,0.052,551
2019-08-21T12:48:30,42.805,6.029,CST-1368DR,8224,11510,15417,0.051,551
2019-08-21T12:51:32,42.805,6.029,CST-1368DR,8224,11510,15417,0.051,551
2019-08-21T12:54:34,42.805,6.029,CST-1368DR,8224,11512,15419,0.051,551
2019-08-21T12:57:35,42.805,6.029,CST-1368DR,8224,11512,15419,0.051,551
2019-08-21T13:00:37,42.805,6.029,CST-1368DR,8224,11509,15416,0.052,551
2019-08-21T13:03:39,42.805,6.029,CST-1368DR,8224,11510,15416,0.052,551
2019-08-21T13:06:40,42.805,6.029,CST-1368DR,8224,11508,15413,0.052,551
2019-08-21T13:09:42,42.805,6.029,CST-1368DR,8224,11508,15414,0.052,551
2019-08-21T13:12:44,42.805,6.029,CST-1368DR,8224,11510,15417,0.051,551
2019-08-21T13:15:45,42.805,6.029,CST-1368DR,8224,11510,15416,0.052,551
2019-08-21T13:18:47,42.805,6.029,CST-1368DR,8224,11510,15416,0.052,551
2019-08-21T13:21:48,42.805,6.029,CST-1368DR,8224,11511,15417,0.051,551
2019-08-21T13:24:50,42.805,6.029,CST-1368DR,8224,11509,15416,0.052,551
2019-08-21T13:27:53,42.805,6.029,CST-1368DR,8224,11508,15413,0.052,551
2019-08-21T13:30:54,42.805,6.029,CST-1368DR,8224,11510,15416,0.052,551
2019-08-21T13:33:56,42.805,6.029,CST-1368DR,8224,11510,15416,0.052,551
2019-08-21T13:36:58,42.805,6.029,CST-1368DR,8224,11511,15418,0.051,551
2019-08-21T13:39:59,42.805,6.029,CST-1368DR,8224,11510,15417,0.051,551
2019-08-21T13:43:01,42.805,6.029,CST-1368DR,8224,11511,15418,0.051,551
2019-08-21T13:46:02,42.805,6.029,CST-1368DR,8224,11511,15418,0.051,550
2019-08-21T13:49:04,42.805,6.029,CST-1368DR,8224,11510,15417,0.051,551
2019-08-21T13:52:06,42.805,6.029,CST-1368DR,8224,11509,15415,0.052,551
2019-08-21T13:55:07,42.805,6.029,CST-1368DR,8224,11511,15418,0.051,551
2019-08-21T13:58:09,42.805,6.029,CST-1368DR,8224,11510,15416,0.052,551
2019-08-21T14:01:11,42.805,6.029,CST-1368DR,8224,11511,15418,0.051,551
2019-08-21T14:04:12,42.805,6.029,CST-1368DR,8224,11510,15416,0.052,550
2019-08-21T14:07:14,42.805,6.029,CST-1368DR,8224,11510,15417,0.051,550
2019-08-21T14:10:16,42.805,6.029,CST-1368DR,8224,11511,15417,0.051,551
2019-08-21T14:13:17,42.805,6.029,CST-1368DR,8224,11510,15417,0.051,551
2019-08-21T14:16:19,42.805,6.029,CST-1368DR,8224,11511,15418,0.051,551
2019-08-21T14:19:21,42.805,6.029,CST-1368DR,8224,11510,15416,0.052,551
2019-08-21T14:22:22,42.805,6.029,CST-1368DR,8224,11508,15414,0.052,551
2019-08-21T14:25:24,42.805,6.029,CST-1368DR,8224,11510,15417,0.051,551
2019-08-21T14:28:26,42.805,6.029,CST-1368DR,8224,11510,15416,0.052,551
2019-08-21T14:31:27,42.805,6.029,CST-1368DR,8224,11511,15418,0.051,551
2019-08-21T14:34:29,42.805,6.029,CST-1368DR,8224,11510,15417,0.051,551
2019-08-21T14:37:30,42.805,6.029,CST-1368DR,8224,11507,15413,0.052,551
2019-08-21T14:40:32,42.805,6.029,CST-1368DR,8224,11513,15420,0.051,551
2019-08-21T14:43:34,42.805,6.029,CST-1368DR,8224,11511,15417,0.051,550
2019-08-21T14:46:35,42.805,6.029,CST-1368DR,8224,11509,15415,0.052,551
2019-08-21T14:49:37,42.805,6.029,CST-1368DR,8224,11509,15415,0.052,551
2019-08-21T14:52:39,42.805,6.029,CST-1368DR,8224,11508,15413,0.052,551
2019-08-21T14:55:40,42.805,6.029,CST-1368DR,8224,11507,15413,0.052,551
2019-08-21T14:58:42,42.805,6.029,CST-1368DR,8224,11508,15413,0.052,551
2019-08-21T15:01:44,42.805,6.029,CST-1368DR,8223,11509,15417,0.051,551
2019-08-21T15:04:45,42.805,6.029,CST-1368DR,8223,11507,15414,0.052,551
2019-08-21T15:07:47,42.805,6.029,CST-1368DR,8224,11510,15416,0.052,551
2019-08-21T15:10:48,42.805,6.029,CST-1368DR,8223,11506,15413,0.052,551
2019-08-21T15:13:50,42.805,6.029,CST-1368DR,8224,11509,15416,0.052,551
2019-08-21T15:16:52,42.805,6.029,CST-1368DR,8223,11510,15419,0.051,551
2019-08-21T15:19:53,42.805,6.029,CST-1368DR,8223,11509,15416,0.052,551
2019-08-21T15:22:55,42.805,6.029,CST-1368DR,8223,11507,15414,0.052,551
2019-08-21T15:25:57,42.805,6.029,CST-1368DR,8223,11507,15414,0.052,551
2019-08-21T15:28:58,42.805,6.029,CST-1368DR,8223,11505,15412,0.053,551
2019-08-21T15:32:00,42.805,6.029,CST-1368DR,8223,11509,15417,0.051,551
2019-08-21T15:35:02,42.805,6.029,CST-1368DR,8223,11507,15414,0.052,551
2019-08-21T15:38:03,42.805,6.029,CST-1368DR,8223,11508,15416,0.052,551
2019-08-21T15:41:05,42.805,6.029,CST-1368DR,8223,11510,15418,0.051,551
2019-08-21T15:44:07,42.805,6.029,CST-1368DR,8223,11507,15414,0.052,551
2019-08-21T15:47:08,42.805,6.029,CST-1368DR,8223,11510,15418,0.051,550
2019-08-21T15:50:10,42.805,6.029,CST-1368DR,8223,11509,15417,0.051,551
2019-08-21T15:53:11,42.805,6.029,CST-1368DR,8223,11510,15418,0.051,550
2019-08-21T15:56:13,42.805,6.029,CST-1368DR,8223,11508,15416,0.052,551
2019-08-21T15:59:15,42.805,6.029,CST-1368DR,8223,11508,15415,0.052,551
2019-08-21T16:02:16,42.805,6.029,CST-1368DR,8223,11500,15405,0.054,551
2019-08-21T16:05:18,42.805,6.029,CST-1368DR,8223,11509,15417,0.051,551
2019-08-21T16:08:20,42.805,6.029,CST-1368DR,8223,11510,15418,0.051,551
2019-08-21T16:11:21,42.805,6.029,CST-1368DR,8223,11509,15417,0.051,550
2019-08-21T16:14:23,42.805,6.029,CST-1368DR,8223,11509,15417,0.051,551
2019-08-21T16:17:24,42.805,6.029,CST-1368DR,8223,11507,15414,0.052,551
2019-08-21T16:20:26,42.805,6.029,CST-1368DR,8223,11509,15416,0.052,550
2019-08-21T16:23:28,42.805,6.029,CST-1368DR,8223,11509,15417,0.051,551
2019-08-21T16:26:29,42.805,6.029,CST-1368DR,8223,11509,15417,0.051,551
2019-08-21T16:29:31,42.805,6.029,CST-1368DR,8223,11509,15416,0.052,551
2019-08-21T16:32:33,42.805,6.029,CST-1368DR,8223,11509,15417,0.051,551
2019-08-21T16:35:34,42.805,6.029,CST-1368DR,8223,11510,15418,0.051,551
2019-08-21T16:38:36,42.805,6.029,CST-1368DR,8223,11509,15417,0.051,550